Location: Beuvrequen
(50.8014°N, 1.6652°E)
Time: 22:10:44
(UTC+00:00)

Cosmos 1758 Rocket - Pass Details

Date: 16 October 2021
Orbit: 602 x 635 km, 82.5° (Epoch: 04 December)

Event Time Altitude Azimuth Distance (km) Brightness Sun altitude
Rises 19:10:24 0° 353° (N) 2,872 7.2 -21.5°
Reaches altitude 10° 19:12:42 10° 360° (N) 1,962 6.3 -21.9°
Enters shadow 19:15:37 36° 28° (NNE) 974 4.4 -22.3°
